Weather History for KHVN - January, 2013

Change the Weather History Date:

Thursday, January 24, 2013

  Actual Average Record
Temperature  
Mean Temperature 16 °F -  
Max Temperature 24 °F 33 °F 59 °F (1989)
Min Temperature 7 °F 20 °F 0 °F (2011)
Degree Days  
Heating Degree Days 50    
Moisture  
Dew Point -3 °F    
Average Humidity 45    
Maximum Humidity 62    
Minimum Humidity 29    
Precipitation  
Precipitation 0.00 in - - ()
Sea Level Pressure  
Sea Level Pressure 30.22 in    
Wind  
Wind Speed 8 mph (NW)    
Max Wind Speed 18 mph    
Max Gust Speed 30 mph    
Visibility 10 miles    
Events      
Averages and records for this station are not official NWS values.
T = Trace of Precipitation, MM = Missing Value Source: NWS Daily Summary

Daily Weather History Graph

Daily Weather History Graph

Search for Another Location

Airport or City:

Trip Planner

Search our weather history database for the weather conditions in past years. The results will help you decide how hot, cold, wet, or windy it might be!

Date:

Astronomy

Jan. 24, 2013 Rise Set
Actual Time 7:09 AM EST 4:58 PM EST
Civil Twilight 6:39 AM EST 5:28 PM EST
Nautical Twilight 6:06 AM EST 6:01 PM EST
Astronomical Twilight 5:33 AM EST 6:34 PM EST
Moon 2:57 PM EST (1/24) 5:05 AM EST (1/24)
Length of Visible Light 10h 48m
Length of Day
9h 48m
Waxing Gibbous, 94% of the Moon is Illuminated
Jan 24
Waxing Gibbous
Jan 26
Full
Feb 3
Last Quarter
Feb 10
New
Feb 17
First Quarter

Hourly Weather History & Observations

Time (EST) Temp. Windchill Dew Point Humidity Pressure Visibility Wind Dir Wind Speed Gust Speed Precip Events Conditions
12:53 AM 9.0 °F - -2.9 °F 59% 30.18 in 10.0 mi Calm Calm - N/A   Clear
1:53 AM 10.0 °F 1.8 °F -2.0 °F 58% 30.17 in 10.0 mi North 4.6 mph - N/A   Partly Cloudy
2:53 AM 10.0 °F 0.4 °F -4.0 °F 53% 30.15 in 10.0 mi North 5.8 mph - N/A   Clear
3:53 AM 8.1 °F -2.0 °F -2.9 °F 61% 30.14 in 10.0 mi North 5.8 mph - N/A   Clear
4:53 AM 8.1 °F -3.2 °F -2.9 °F 61% 30.15 in 10.0 mi North 6.9 mph - N/A   Partly Cloudy
5:53 AM 7.0 °F -5.7 °F -4.0 °F 61% 30.16 in 10.0 mi North 8.1 mph - N/A   Mostly Cloudy
6:53 AM 8.6 °F -2.6 °F -2.2 °F 62% 30.18 in 10.0 mi North 6.9 mph - N/A   Mostly Cloudy
7:53 AM 10.0 °F -1.9 °F -4.0 °F 53% 30.19 in 10.0 mi North 8.1 mph - N/A   Clear
8:53 AM 12.9 °F 2.6 °F -2.9 °F 49% 30.20 in 10.0 mi NNW 6.9 mph - N/A   Scattered Clouds
9:53 AM 16.0 °F 1.7 °F -0.9 °F 47% 30.20 in 10.0 mi North 13.8 mph 18.4 mph N/A   Partly Cloudy
10:53 AM 18.0 °F 3.1 °F -0.9 °F 44% 30.20 in 10.0 mi NW 16.1 mph 24.2 mph N/A   Partly Cloudy
11:53 AM 19.9 °F 4.8 °F -2.0 °F 38% 30.18 in 10.0 mi NW 18.4 mph 28.8 mph N/A   Partly Cloudy
12:53 PM 21.0 °F 7.1 °F -4.0 °F 33% 30.18 in 10.0 mi NW 16.1 mph 29.9 mph N/A   Partly Cloudy
1:53 PM 21.9 °F 7.8 °F -4.0 °F 32% 30.18 in 10.0 mi NNW 17.3 mph 29.9 mph N/A   Partly Cloudy
2:53 PM 24.1 °F 11.5 °F -4.0 °F 29% 30.20 in 10.0 mi NNW 15.0 mph 26.5 mph N/A   Partly Cloudy
3:53 PM 24.1 °F 12.0 °F -0.9 °F 34% 30.20 in 10.0 mi NW 13.8 mph 21.9 mph N/A   Clear
4:53 PM 23.0 °F 11.7 °F -2.0 °F 34% 30.23 in 10.0 mi WNW 11.5 mph 24.2 mph N/A   Partly Cloudy
5:53 PM 21.9 °F 10.4 °F -2.0 °F 35% 30.25 in 10.0 mi WNW 11.5 mph 23.0 mph N/A   Clear
6:53 PM 21.0 °F 8.6 °F -4.0 °F 33% 30.28 in 10.0 mi WNW 12.7 mph 24.2 mph N/A   Clear
7:53 PM 19.9 °F 8.6 °F -0.9 °F 40% 30.30 in 10.0 mi WNW 10.4 mph 19.6 mph N/A   Clear
8:53 PM 19.0 °F 7.5 °F -2.9 °F 38% 30.31 in 10.0 mi WNW 10.4 mph 18.4 mph N/A   Clear
9:53 PM 18.0 °F 8.7 °F -4.0 °F 38% 30.32 in 10.0 mi NW 6.9 mph - N/A   Clear
10:53 PM 18.0 °F 6.9 °F -2.0 °F 41% 30.34 in 10.0 mi WNW 9.2 mph - N/A   Clear
11:53 PM 18.0 °F 6.1 °F -0.9 °F 44% 30.32 in 10.0 mi West 10.4 mph 19.6 mph N/A   Clear